Location: Lima
(44.6384°N, 112.5920°W)
Time: 01:09:21
(UTC+00:00)

ISS - Visible Passes

Search period start: 29 November 2023 00:00
Search period end: 09 December 2023 00:00
Orbit: 416 x 418 km, 51.6° (Epoch: 28 November)

Date Brightness Start Highest point End Pass type
(mag) Time Alt. Az. Time Alt. Az. Time Alt. Az.
29 Nov -2.4 01:49:34 10° NW 01:51:51 29° NNW 01:51:51 29° NNW visible
30 Nov -2.6 01:01:16 10° NW 01:04:14 28° NNE 01:05:35 21° NE visible
30 Nov -0.7 02:37:56 10° WNW 02:38:31 14° WNW 02:38:31 14° WNW visible
01 Dec -3.2 01:49:35 10° NW 01:52:18 50° NNW 01:52:18 50° NNW visible
02 Dec -3.3 01:01:14 10° NW 01:04:27 43° NNE 01:06:10 23° E visible
02 Dec -0.8 02:38:05 10° WNW 02:39:06 17° W 02:39:06 17° W visible
03 Dec -3.3 01:49:30 10° WNW 01:52:48 56° SW 01:53:06 54° S visible
04 Dec -3.8 01:00:59 10° WNW 01:04:21 89° ENE 01:07:17 13° ESE visible
04 Dec -0.6 02:38:53 10° W 02:40:14 13° SW 02:40:14 13° SW visible
05 Dec -1.4 01:49:38 10° W 01:52:19 22° SW 01:54:44 11° S visible
06 Dec -2.2 01:00:45 10° WNW 01:03:53 36° SW 01:06:59 10° SSE visible
08 Dec -0.6 01:01:04 10° W 01:03:02 15° SW 01:05:00 10° S visible
